Location: Newark
(44.6768°N, 22.5302°E)
Time: 01:57:17
(UTC+00:00)

CUTE 1.7 + AOD 2 - Pass Details

Date: 06 July 2022
Orbit: 589 x 608 km, 97.7° (Epoch: 17 August)

Event Time Altitude Azimuth Distance (km) Brightness Sun altitude
Rises 01:24:07 0° 28° (NNE) 2,845 ? -12.3°
Reaches altitude 10° 01:26:51 10° 47° (NE) 1,934 ? -12.0°
Maximum altitude 01:29:50 19° 92° (E) 1,441 ? -11.7°
Drops below altitude 10° 01:32:47 10° 138° (SE) 1,916 ? -11.3°
Sets 01:35:29 0° 156° (SSE) 2,809 ? -11.0°
